[[{"header":{"parameterUnit":"m.s-1","parameterCategory":1,"la1":30.2992,"la2":30.254,"lo1":-89.0895,"lo2":-89.0443,"dy":0.0025,"dx":0.0025,"nx":19,"ny":19,"refTime":"2026-04-30T21:00:00:Z","depth":0,"parameterNumber":2,"parameterNumberName":"U-component_of_WINDS"},"data":[0,0,0,-4.7804,-4.7809,-4.8037,-4.8038,-4.8341,-4.8343,0,0,0,0,0,0,0,0,0,0,0,-4.7746,-4.7748,-4.7804,-4.781,-4.8037,-4.8038,-4.834,-4.8343,0,0,0,0,0,0,0,0,0,0,0,-4.7745,-4.7748,-4.7751,-4.7811,-4.8037,-4.8038,-4.8339,-4.8163,0,0,0,0,0,0,0,0,0,0,-4.794,-4.7895,-4.7747,-4.7751,-4.7812,-4.8036,-4.8038,-4.8155,-4.8174,-4.8243,0,-4.8308,0,-4.8331,-4.8365,-4.8366,0,0,0,-4.7803,-4.7879,-4.7932,-4.7751,-4.7814,-4.8036,-4.7932,-4.8165,-4.8188,-4.827,-4.8312,-4.8323,-4.8336,-4.8367,-4.8368,-4.8794,-4.8796,0,0,-4.7791,-4.7791,-4.7917,-4.7947,-4.7914,-4.7925,-4.794,-4.8179,-4.8225,-4.8313,-4.833,-4.8341,-4.8369,-4.8371,-4.8792,-4.8794,0,0,0,-4.7759,-4.7783,-4.783,-4.7935,-4.7975,-4.7932,-4.7949,-4.8214,-4.823,-4.8333,-4.8344,-4.8371,-4.8374,-4.8789,-4.8793,-4.8911,0,0,0,-4.7751,-4.7764,-4.7825,-4.7827,-4.7971,-4.8098,-4.7979,-4.8213,-4.824,-4.8343,-4.8371,-4.8378,-4.8787,-4.8791,-4.8902,-4.8967,0,0,0,-4.7728,-4.7761,-4.7797,-4.7827,-4.7925,-4.8094,-4.8123,-4.8219,-4.8248,-4.8366,-4.8378,-4.8785,-4.879,-4.8894,-4.8954,-4.9082,0,0,0,-4.7703,-4.7897,-4.7799,-4.802,-4.7923,-4.8165,-4.8121,-4.8301,-4.8416,-4.8372,-4.8787,-4.8792,-4.8892,-4.8946,-4.9074,-4.9192,-4.9241,0,0,-4.7948,-4.7926,-4.8056,-4.7975,-4.8235,-4.813,-4.8407,-4.851,-4.8519,-4.8701,-4.8712,-4.8905,-4.8953,-4.908,-4.9506,-4.9545,0,0,0,-4.8134,-4.8228,-4.8296,-4.8407,-4.8492,-4.8571,-4.8632,-4.8671,-4.8826,-4.8614,-4.8983,-4.9012,-4.9087,-4.9143,-4.9176,-4.9242,-4.8818,-4.8817,-4.8816,-4.8483,-4.8486,-4.8702,-4.8733,-4.884,-4.8903,-4.8991,-4.9053,-4.9022,-4.9109,-4.9165,-4.9424,-4.949,-4.9515,-4.9582,-4.9224,-4.9225,-4.9225,-4.9226,-4.8845,-4.898,-4.8936,-4.913,-4.9131,-4.9294,-4.936,-4.9334,-4.9485,-4.9381,-4.9447,-4.9337,-4.9557,-4.9617,-4.9235,-4.9233,-4.9232,-4.9231,-4.923,-4.9077,-4.9143,-4.9187,-4.9349,-4.9473,-4.9495,-4.9644,-4.9638,-4.9634,-4.9698,-4.9758,-4.9756,-4.9757,-4.9726,-4.9727,-4.9728,-4.9729,-4.973,-4.973,-4.9302,-4.9348,-4.9475,-4.9582,-4.9654,-4.9747,-4.981,-4.988,-4.9956,-4.994,-4.9941,-4.9904,-4.9577,-4.9497,-4.9744,-4.9742,-4.974,-4.9739,-4.9738,-4.9675,-4.959,-4.9786,-4.9858,-4.9984,-5.0109,-5.0099,-5.0242,-5.0298,-5.0372,-5.0319,-5.0077,-5.0055,-5.0029,-4.9963,-5.0316,-5.0316,-5.0316,-5.0316,-4.9874,-4.9861,-5.0062,-5.0178,-5.0289,-5.0301,-5.0523,-5.0574,-5.0613,-5.0648,-5.0595,-5.0506,-5.0479,-5.0472,-5.0437,-5.0376,-5.0826,-5.0826,-5.0827,-5.0105,-5.0103,-5.0294,-5.0333,-5.0431,-5.0515,-5.0724,-5.0858,-5.0883,-5.0848,-5.0676,-5.0655,-5.051,-5.0463,-5.0427,-5.0371,-5.0258,0,0]},{"header":{"parameterUnit":"m.s-1","parameterCategory":1,"la1":30.2992,"la2":30.254,"lo1":-89.0895,"lo2":-89.0443,"dy":0.0025,"dx":0.0025,"nx":19,"ny":19,"refTime":"2026-04-30T21:00:00:Z","depth":0,"parameterNumber":3,"parameterNumberName":"V-component_of_WINDS"},"data":[0,0,0,-7.5004,-7.5005,-7.5036,-7.5036,-7.5105,-7.5106,0,0,0,0,0,0,0,0,0,0,0,-7.5014,-7.5015,-7.5004,-7.5005,-7.5036,-7.5036,-7.5105,-7.5106,0,0,0,0,0,0,0,0,0,0,0,-7.5013,-7.5014,-7.5016,-7.5005,-7.5036,-7.5036,-7.5104,-7.507,0,0,0,0,0,0,0,0,0,0,-7.5035,-7.5063,-7.5014,-7.5016,-7.5005,-7.5036,-7.5036,-7.5068,-7.5072,-7.5103,0,-7.5137,0,-7.5123,-7.5112,-7.5113,0,0,0,-7.4991,-7.506,-7.5051,-7.5016,-7.5006,-7.5036,-7.5018,-7.507,-7.5075,-7.5109,-7.5138,-7.514,-7.5124,-7.5113,-7.5113,-7.5341,-7.5342,0,0,-7.4989,-7.5029,-7.5048,-7.5055,-7.5053,-7.5017,-7.5019,-7.5073,-7.5106,-7.5138,-7.5141,-7.5125,-7.5113,-7.5114,-7.5339,-7.5341,0,0,0,-7.4994,-7.5029,-7.5018,-7.5053,-7.5056,-7.5018,-7.502,-7.5104,-7.5097,-7.5141,-7.5126,-7.5114,-7.5115,-7.5337,-7.534,-7.5463,0,0,0,-7.4992,-7.5031,-7.5018,-7.5043,-7.5056,-7.5081,-7.5051,-7.5093,-7.5098,-7.5126,-7.5114,-7.5116,-7.5335,-7.5338,-7.5455,-7.5514,0,0,0,-7.5005,-7.5033,-7.5044,-7.5045,-7.506,-7.5079,-7.5075,-7.5093,-7.5089,-7.5113,-7.5116,-7.5334,-7.5338,-7.5449,-7.5503,-7.5583,0,0,0,-7.5031,-7.5155,-7.5047,-7.5179,-7.506,-7.5156,-7.5074,-7.5143,-7.5178,-7.5115,-7.5335,-7.5339,-7.5447,-7.5496,-7.5577,-7.5657,-7.5695,0,0,-7.521,-7.5178,-7.5253,-7.5156,-7.5282,-7.5148,-7.529,-7.5285,-7.525,-7.5312,-7.5317,-7.5458,-7.5502,-7.5582,-7.5898,-7.5928,0,0,0,-7.5323,-7.5377,-7.5401,-7.5436,-7.5434,-7.5436,-7.5403,-7.54,-7.5451,-7.5291,-7.5509,-7.5534,-7.5579,-7.5615,-7.5641,-7.5676,-7.5359,-7.5358,-7.5358,-7.5635,-7.5583,-7.5701,-7.5652,-7.5687,-7.5651,-7.5673,-7.5662,-7.5602,-7.5654,-7.5671,-7.5869,-7.5914,-7.5933,-7.597,-7.5712,-7.5712,-7.5712,-7.5713,-7.5891,-7.5958,-7.5871,-7.5954,-7.5898,-7.5967,-7.5936,-7.589,-7.5945,-7.5853,-7.589,-7.5791,-7.5968,-7.5997,-7.5722,-7.572,-7.5719,-7.5718,-7.5717,-7.6088,-7.611,-7.6104,-7.6146,-7.6184,-7.613,-7.6186,-7.6133,-7.6084,-7.6121,-7.6131,-7.6129,-7.6118,-7.613,-7.613,-7.6131,-7.6132,-7.6132,-7.6133,-7.6294,-7.6283,-7.6336,-7.6342,-7.6355,-7.6366,-7.6329,-7.634,-7.6339,-7.6296,-7.6296,-7.6227,-7.5996,-7.5937,-7.6143,-7.6141,-7.614,-7.6139,-7.6138,-7.657,-7.6498,-7.6581,-7.6594,-7.6594,-7.6633,-7.6565,-7.6592,-7.6593,-7.6622,-7.6545,-7.6384,-7.6347,-7.6326,-7.6277,-7.6558,-7.6558,-7.6558,-7.6558,-7.6734,-7.671,-7.678,-7.6804,-7.6821,-7.6766,-7.6859,-7.6831,-7.679,-7.6787,-7.6739,-7.667,-7.6652,-7.6626,-7.6598,-7.6551,-7.6896,-7.6897,-7.6897,-7.6899,-7.6873,-7.6963,-7.6921,-7.6916,-7.6913,-7.6997,-7.7027,-7.6967,-7.6909,-7.6783,-7.6769,-7.6657,-7.6624,-7.6563,-7.6522,-7.6435,0,0]}]]